Location: Bailleul
(50.3375°N, 2.8513°E)
Time: 20:10:21
(UTC+00:00)

Meteor 2-1 Rocket - Pass Details

Date: 19 April 2021
Orbit: 827 x 909 km, 81.3° (Epoch: 18 May)

Event Time Altitude Azimuth Distance (km) Brightness Sun altitude
Rises 20:13:54 0° 192° (SSW) 3,477 7.2 -12.7°
Reaches altitude 10° 20:16:19 10° 193° (SSW) 2,553 6.5 -13.0°
Maximum altitude 20:22:10 84° 282° (WNW) 914 4.4 -13.7°
Drops below altitude 10° 20:28:09 10° 11° (N) 2,605 7.1 -14.5°
Sets 20:30:38 0° 13° (NNE) 3,553 7.8 -14.8°
